Palacios, TX

8:58 AM CDT on September 26, 2017 (GMT -0500)
Palacios Municipal

Weather History for KPSX - April, 2013

Change the Weather History Date:

Saturday, April 27, 2013

  Actual Average Record
Temperature  
Mean Temperature 76 °F -  
Max Temperature 82 °F 79 °F 96 °F (2011)
Min Temperature 71 °F 64 °F 48 °F (1980)
Cooling Degree Days 12    
Growing Degree Days 26 (Base 50)    
Moisture  
Dew Point 69 °F    
Average Humidity 82    
Maximum Humidity 94    
Minimum Humidity 62    
Precipitation  
Precipitation 0.00 in - - ()
Sea Level Pressure  
Sea Level Pressure 30.03 in    
Wind  
Wind Speed 10 mph (SE)    
Max Wind Speed 20 mph    
Max Gust Speed 26 mph    
Visibility 8 miles    
Events      
Averages and records for this station are not official NWS values.
T = Trace of Precipitation, MM = Missing Value Source: NWS Daily Summary

Daily Weather History Graph

Daily Weather History Graph

Search for Another Location

Airport or City:

Trip Planner

Search our weather history database for the weather conditions in past years. The results will help you decide how hot, cold, wet, or windy it might be!

Date:

Astronomy

Apr. 27, 2013 Rise Set
Actual Time 6:47 AM CDT 7:58 PM CDT
Civil Twilight 6:22 AM CDT 8:23 PM CDT
Nautical Twilight 5:53 AM CDT 8:52 PM CDT
Astronomical Twilight 5:22 AM CDT 9:23 PM CDT
Moon 10:20 PM CDT (4/27) 8:14 AM CDT (4/27)
Length of Visible Light 14h 00m
Length of Day
13h 10m
Waning Gibbous, 95% of the Moon is Illuminated
Apr 27
Waning Gibbous
May 2
Last Quarter
May 9
New
May 17
First Quarter
May 24
Full

Hourly Weather History & Observations

Time (CDT) Temp. Heat Index Dew Point Humidity Pressure Visibility Wind Dir Wind Speed Gust Speed Precip Events Conditions
12:53 AM 72.0 °F - 69.1 °F 91% 30.10 in 8.0 mi SSE 6.9 mph - N/A   Mostly Cloudy
1:53 AM 71.1 °F - 68.0 °F 90% 30.09 in 7.0 mi SSE 5.8 mph - N/A   Overcast
2:53 AM 72.0 °F - 68.0 °F 87% 30.05 in 6.0 mi SE 10.4 mph - N/A   Mostly Cloudy
3:53 AM 72.0 °F - 69.1 °F 91% 30.03 in 6.0 mi SE 8.1 mph - N/A   Overcast
4:53 AM 72.0 °F - 69.1 °F 91% 30.02 in 6.0 mi SSE 9.2 mph - N/A   Overcast
5:05 AM 71.6 °F - 69.8 °F 94% 30.03 in 6.0 mi SSE 8.1 mph - N/A   Overcast
5:21 AM 71.6 °F - 69.8 °F 94% 30.03 in 6.0 mi SSE 5.8 mph - N/A   Overcast
5:44 AM 71.6 °F - 69.8 °F 94% 30.03 in 6.0 mi SE 5.8 mph - N/A   Overcast
5:53 AM 72.0 °F - 69.1 °F 91% 30.04 in 5.0 mi SSE 4.6 mph - N/A   Overcast
6:11 AM 71.6 °F - 69.8 °F 94% 30.04 in 6.0 mi Calm Calm - N/A   Overcast
6:53 AM 72.0 °F - 69.1 °F 91% 30.04 in 6.0 mi ESE 6.9 mph - N/A   Overcast
7:43 AM 73.4 °F - 69.8 °F 88% 30.05 in 6.0 mi SE 8.1 mph - N/A   Overcast
7:53 AM 73.0 °F - 70.0 °F 90% 30.05 in 6.0 mi SE 8.1 mph - N/A   Overcast
8:10 AM 73.4 °F - 69.8 °F 88% 30.06 in 7.0 mi SE 8.1 mph - N/A   Overcast
8:53 AM 73.9 °F - 70.0 °F 87% 30.07 in 8.0 mi SSE 8.1 mph - N/A   Overcast
9:09 AM 75.2 °F - 69.8 °F 83% 30.07 in 9.0 mi SSE 10.4 mph - N/A   Overcast
10:53 AM 77.0 °F - 69.1 °F 76% 30.09 in 10.0 mi SSE 15.0 mph - N/A   Overcast
11:53 AM 80.1 °F 82.9 °F 69.1 °F 69% 30.10 in 10.0 mi SSE 18.4 mph - N/A   Mostly Cloudy
12:53 PM 82.9 °F 86.5 °F 69.1 °F 63% 30.08 in 10.0 mi SSE 18.4 mph 25.3 mph N/A   Partly Cloudy
1:53 PM 82.0 °F 84.9 °F 68.0 °F 62% 30.06 in 10.0 mi SSE 19.6 mph - N/A   Scattered Clouds
2:53 PM 81.0 °F 83.8 °F 68.0 °F 65% 30.02 in 10.0 mi SSE 17.3 mph 26.5 mph N/A   Scattered Clouds
3:53 PM 82.0 °F 85.5 °F 69.1 °F 65% 30.01 in 10.0 mi South 17.3 mph 23.0 mph N/A   Clear
4:53 PM 80.1 °F 82.7 °F 68.0 °F 67% 29.98 in 10.0 mi SSE 17.3 mph 25.3 mph N/A   Clear
5:53 PM 79.0 °F - 68.0 °F 69% 29.96 in 10.0 mi SSE 18.4 mph - N/A   Scattered Clouds
6:53 PM 77.0 °F - 69.1 °F 76% 29.97 in 10.0 mi SE 16.1 mph - N/A   Overcast
7:53 PM 75.0 °F - 69.1 °F 82% 29.97 in 9.0 mi SE 13.8 mph - N/A   Mostly Cloudy
8:47 PM 75.2 °F - 69.8 °F 83% 29.99 in 10.0 mi ESE 12.7 mph - N/A   Overcast
8:48 PM 75.0 °F - 70.0 °F 84% 29.99 in 10.0 mi East 12.7 mph - N/A   Overcast
9:02 PM 75.2 °F - 69.8 °F 83% 29.99 in 10.0 mi East 13.8 mph - N/A   Overcast
9:17 PM 75.2 °F - 69.8 °F 83% 30.01 in 10.0 mi East 11.5 mph - N/A   Overcast
9:53 PM 75.0 °F - 69.1 °F 82% 30.01 in 10.0 mi East 15.0 mph - N/A   Overcast
10:28 PM 75.2 °F - 69.8 °F 83% 30.04 in 9.0 mi ENE 11.5 mph - N/A   Mostly Cloudy
10:53 PM 75.0 °F - 69.1 °F 82% 30.05 in 10.0 mi East 13.8 mph - N/A   Overcast
11:20 PM 75.2 °F - 69.8 °F 83% 30.04 in 10.0 mi East 15.0 mph - N/A   Overcast
11:53 PM 73.9 °F - 69.1 °F 85% 30.04 in 9.0 mi East 12.7 mph 21.9 mph 0.00 in   Scattered Clouds